DW1234 Weather Reports


Display with metric or nautical units.
time (UTC)temp
F
wind
direction
speed
MPH
gust
MPH
rain 1hr
in
rain 24hr
in
rain mn
in
humidity
%
barometer
mb
20260902170737 94 186 8.0 17.0 0.00 0.00 0.00 50 1013.0
20260902170248 94 186 12.0 18.0 0.00 0.00 0.00 51 1012.9
20260902170013 93 173 11.0 18.0 0.00 0.00 0.00 51 1010.0
20260902165732 93 214 10.0 18.0 0.00 0.00 0.00 50 1012.9
20260902165308 93 171 12.0 16.0 0.00 0.00 0.00 53 1012.9
20260902164722 93 172 10.0 16.0 0.00 0.00 0.00 52 1012.9
20260902164551 92 159 10.0 16.0 0.00 0.00 0.00 54 1010.1
20260902164236 93 212 11.0 18.0 0.00 0.00 0.00 54 1013.0
20260902163747 93 209 12.0 18.0 0.00 0.00 0.00 51 1013.0
20260902163225 93 198 11.0 16.0 0.00 0.00 0.00 53 1013.0
20260902163051 92 200 9.0 15.0 0.00 0.00 0.00 55 1010.2
20260902162735 92 146 10.0 16.0 0.00 0.00 0.00 52 1013.0
20260902162307 91 194 11.0 16.0 0.00 0.00 0.00 55 1013.0
20260902161727 91 173 9.0 17.0 0.00 0.00 0.00 57 1013.0
20260902161527 90 188 9.0 17.0 0.00 0.00 0.00 55 1010.2
20260902161240 90 215 9.0 16.0 0.00 0.00 0.00 58 1013.0
20260902160749 90 211 8.0 14.0 0.00 0.00 0.00 60 1013.1
20260902160232 89 150 9.0 12.0 0.00 0.00 0.00 60 1013.1
20260902160036 88 201 6.0 11.0 0.00 0.00 0.00 60 1010.2
20260902155738 89 200 9.0 11.0 0.00 0.00 0.00 60 1013.1
20260902155221 88 181 8.0 11.0 0.00 0.00 0.00 59 1013.2
20260902154731 89 181 7.0 13.0 0.00 0.00 0.00 58 1013.2
20260902154539 88 202 6.0 13.0 0.00 0.00 0.00 59 1010.4
20260902154244 89 153 7.0 13.0 0.00 0.00 0.00 59 1013.2
20260902153725 88 202 8.0 14.0 0.00 0.00 0.00 58 1013.2
20260902153255 88 181 10.0 14.0 0.00 0.00 0.00 60 1013.2
20260902153011 87 167 10.0 15.0 0.00 0.00 0.00 60 1010.3
20260902152806 87 193 9.0 15.0 0.00 0.00 0.00 63 1013.2
20260902152224 87 202 9.0 12.0 0.00 0.00 0.00 62 1013.2
20260902151736 86 148 8.0 14.0 0.00 0.00 0.00 64 1013.3
20260902151539 85 173 9.0 15.0 0.00 0.00 0.00 63 1010.4
20260902151308 85 167 9.0 15.0 0.00 0.00 0.00 62 1013.3
20260902150728 85 163 10.0 15.0 0.00 0.00 0.00 62 1013.1
20260902150240 84 164 10.0 14.0 0.00 0.00 0.00 62 1013.2
20260902150056 83 180 9.0 14.0 0.00 0.00 0.00 62 1010.4
20260902145724 83 169 9.0 13.0 0.00 0.00 0.00 63 1013.3
20260902145236 82 161 7.0 10.0 0.00 0.00 0.00 66 1013.1
20260902144743 81 174 8.0 10.0 0.00 0.00 0.00 70 1013.2
20260902144555 80 176 6.0 10.0 0.00 0.00 0.00 70 1010.3
20260902144235 80 174 8.0 11.0 0.00 0.00 0.00 72 1013.2
20260902143745 79 167 6.0 10.0 0.00 0.00 0.00 70 1013.0
20260902143228 79 147 6.0 10.0 0.00 0.00 0.00 71 1013.2
20260902143040 79 142 6.0 10.0 0.00 0.00 0.00 71 1010.3
20260902142739 79 175 5.0 9.0 0.00 0.00 0.00 70 1013.2
20260902142311 79 183 7.0 11.0 0.00 0.00 0.00 69 1013.2
20260902141731 80 172 8.0 12.0 0.00 0.00 0.00 69 1013.2
20260902141526 79 171 8.0 12.0 0.00 0.00 0.00 69 1010.3
20260902141241 80 145 10.0 12.0 0.00 0.00 0.00 69 1013.2
20260902140723 80 172 5.0 9.0 0.00 0.00 0.00 68 1013.5
20260902140235 81 167 5.0 11.0 0.00 0.00 0.00 67 1013.5
20260902140028 80 202 5.0 11.0 0.00 0.00 0.00 67 1010.7
20260902135808 81 165 7.0 12.0 0.00 0.00 0.00 66 1013.3
20260902135229 81 180 7.0 10.0 0.00 0.00 0.00 65 1013.4
20260902134800 82 176 7.0 9.0 0.00 0.00 0.00 64 1013.5
20260902134540 81 180 5.0 7.0 0.00 0.00 0.00 64 1010.7
20260902134224 82 151 6.0 8.0 0.00 0.00 0.00 64 1013.4
20260902133729 81 177 5.0 7.0 0.00 0.00 0.00 66 1013.5
20260902133302 81 146 3.0 5.0 0.00 0.00 0.00 69 1013.7
20260902133024 80 146 2.0 5.0 0.00 0.00 0.00 70 1010.9
20260902132723 80 146 3.0 4.0 0.00 0.00 0.00 70 1013.7
20260902132233 79 146 2.0 4.0 0.00 0.00 0.00 71 1013.8
20260902131745 78 146 2.0 4.0 0.00 0.00 0.00 71 1013.9
20260902131521 77 146 1.0 4.0 0.00 0.00 0.00 72 1011.1
20260902131228 77 146 2.0 4.0 0.00 0.00 0.00 72 1013.9
20260902130757 77 146 1.0 9.0 0.00 0.00 0.00 73 1013.9
20260902130303 76 146 3.0 9.0 0.00 0.00 0.00 74 1013.5
20260902130035 76 144 6.0 9.0 0.00 0.00 0.00 73 1010.6
20260902125724 76 136 3.0 5.0 0.00 0.00 0.00 73 1013.5
20260902125236 75 125 3.0 6.0 0.00 0.00 0.00 73 1013.7
20260902124749 75 98 3.0 6.0 0.00 0.00 0.00 74 1013.6
20260902124508 75 101 1.0 4.0 0.00 0.00 0.00 74 1010.9
20260902124233 75 101 2.0 4.0 0.00 0.00 0.00 74 1013.7
20260902123802 75 61 3.0 3.0 0.00 0.00 0.00 74 1013.7
20260902123222 75 60 2.0 5.0 0.00 0.00 0.00 74 1013.5
20260902123040 74 60 1.0 5.0 0.00 0.00 0.00 74 1010.7
20260902122733 75 61 3.0 5.0 0.00 0.00 0.00 74 1013.4
20260902122244 75 146 2.0 4.0 0.00 0.00 0.00 73 1013.4
20260902121736 75 146 2.0 4.0 0.00 0.00 0.00 73 1013.3
20260902121530 74 146 1.0 4.0 0.00 0.00 0.00 73 1010.5
20260902121246 75 146 2.0 4.0 0.00 0.00 0.00 72 1013.2
20260902120727 75 133 2.0 7.0 0.00 0.00 0.00 72 1013.2
20260902120239 75 128 3.0 8.0 0.00 0.00 0.00 72 1013.1
20260902120023 74 130 3.0 8.0 0.00 0.00 0.00 72 1010.3
20260902115807 75 103 4.0 8.0 0.00 0.00 0.00 72 1013.0
20260902115228 75 114 3.0 9.0 0.00 0.00 0.00 72 1013.0
20260902114801 75 62 3.0 9.0 0.00 0.00 0.00 72 1013.1
20260902114538 75 50 4.0 9.0 0.00 0.00 0.00 71 1010.4
20260902114312 75 46 4.0 9.0 0.00 0.00 0.00 71 1013.1
20260902113733 76 63 5.0 9.0 0.00 0.00 0.00 70 1013.1
20260902113307 76 46 3.0 4.0 0.00 0.00 0.00 69 1013.0
20260902113059 76 46 2.0 4.0 0.00 0.00 0.00 69 1010.3
20260902113008 76 45 2.0 4.0 0.00 0.00 0.00 69 1010.2
20260902112724 76 21 3.0 4.0 0.00 0.00 0.00 69 1013.0
20260902112235 76 11 2.0 4.0 0.00 0.00 0.00 67 1012.9
20260902111747 76 121 2.0 9.0 0.00 0.00 0.00 68 1012.8
20260902111600 76 155 2.0 9.0 0.00 0.00 0.00 68 1010.1
20260902111231 77 145 4.0 9.0 0.00 0.00 0.00 68 1012.8
20260902110740 77 161 5.0 10.0 0.00 0.00 0.00 67 1012.8
20260902110223 77 180 6.0 11.0 0.00 0.00 0.00 67 1012.8
20260902110107 76 186 7.0 11.0 0.00 0.00 0.00 67 1010.0
20260902110002 76 179 8.0 11.0 0.00 0.00 0.00 67 1010.0
20260902105753 77 165 7.0 11.0 0.00 0.00 0.00 67 1012.7
20260902105239 77 185 7.0 12.0 0.00 0.00 0.00 66 1012.7
20260902104722 77 171 9.0 13.0 0.00 0.00 0.00 66 1012.7
20260902104543 76 154 8.0 13.0 0.00 0.00 0.00 66 1009.9
20260902104234 77 154 8.0 13.0 0.00 0.00 0.00 66 1012.7
20260902103744 77 202 9.0 13.0 0.00 0.00 0.00 66 1012.9
20260902103227 77 183 7.0 11.0 0.00 0.00 0.00 66 1012.9
20260902103043 76 186 8.0 12.0 0.00 0.00 0.00 66 1010.2
20260902102737 77 177 6.0 9.0 0.00 0.00 0.00 66 1013.1
20260902102248 77 163 5.0 8.0 0.00 0.00 0.00 66 1013.2
20260902101731 77 173 5.0 7.0 0.00 0.00 0.00 66 1013.3
20260902101544 76 154 4.0 7.0 0.00 0.00 0.00 66 1010.6
20260902101240 77 173 4.0 7.0 0.00 0.00 0.00 65 1013.4
20260902100721 77 131 3.0 5.0 0.00 0.00 0.00 65 1013.5
20260902100234 77 111 3.0 6.0 0.00 0.00 0.00 64 1013.6
20260902100042 77 80 2.0 6.0 0.00 0.00 0.00 64 1010.8
20260902095807 78 112 3.0 6.0 0.00 0.00 0.00 64 1013.6
20260902095228 78 104 2.0 4.0 0.00 0.00 0.00 63 1013.6
20260902094742 78 219 2.0 4.0 0.00 0.00 0.00 63 1013.5
20260902094519 78 219 2.0 4.0 0.00 0.00 0.00 63 1010.8
20260902094225 78 219 2.0 3.0 0.00 0.00 0.00 63 1013.6
20260902093750 78 219 2.0 3.0 0.00 0.00 0.00 63 1013.6
20260902093241 79 219 0.0 7.0 0.00 0.00 0.00 62 1013.5
20260902093057 78 219 1.0 15.0 0.00 0.00 0.00 62 1010.7
20260902093005 78 219 1.0 15.0 0.00 0.00 0.00 62 1010.7
20260902092724 79 219 2.0 15.0 0.00 0.00 0.00 62 1013.5
20260902092257 78 219 9.0 15.0 0.00 0.00 0.00 62 1013.4
20260902091721 78 199 5.0 21.0 0.00 0.00 0.00 63 1013.4
20260902091550 78 221 4.0 21.0 0.00 0.00 0.00 63 1010.6
20260902091234 78 226 9.0 21.0 0.00 0.00 0.00 63 1013.5
20260902090744 77 220 6.0 21.0 0.00 0.00 0.00 66 1013.4
20260902090227 77 139 6.0 19.0 0.00 0.00 0.00 66 1013.4
20260902090044 76 160 9.0 19.0 0.00 0.00 0.00 66 1010.8
20260902085733 76 326 5.0 13.0 0.00 0.00 0.00 69 1013.3
20260902085244 75 209 3.0 5.0 0.00 0.00 0.00 69 1013.6
20260902084736 75 209 2.0 5.0 0.00 0.00 0.00 69 1013.5
20260902084524 75 209 1.0 5.0 0.00 0.00 0.00 69 1010.7
20260902084248 75 209 3.0 8.0 0.00 0.00 0.00 70 1013.5
20260902083729 76 349 3.0 11.0 0.00 0.00 0.00 70 1013.5
20260902083242 76 337 9.0 11.0 0.00 0.00 0.00 70 1013.7
20260902083058 75 355 8.0 10.0 0.00 0.00 0.00 70 1010.7
20260902083007 75 5 8.0 10.0 0.00 0.00 0.00 70 1010.8
20260902082724 76 339 7.0 10.0 0.00 0.00 0.00 69 1013.6
20260902082230 76 201 2.0 8.0 0.00 0.00 0.00 68 1013.4
20260902081740 76 192 4.0 8.0 0.00 0.00 0.00 68 1013.0
20260902081556 76 200 5.0 8.0 0.00 0.00 0.00 68 1010.1
20260902081224 76 169 5.0 9.0 0.00 0.00 0.00 68 1012.9
20260902080736 77 167 6.0 8.0 0.00 0.00 0.00 68 1012.9
20260902080247 77 182 7.0 9.0 0.00 0.00 0.00 68 1012.8
20260902080109 76 174 6.0 10.0 0.00 0.00 0.00 68 1010.0
20260902075729 77 179 6.0 10.0 0.00 0.00 0.00 68 1012.8
20260902075239 77 174 8.0 10.0 0.00 0.00 0.00 68 1012.7
20260902074748 77 164 8.0 11.0 0.00 0.00 0.00 68 1012.7
20260902074545 76 180 7.0 11.0 0.00 0.00 0.00 68 1009.8
20260902074239 77 183 8.0 11.0 0.00 0.00 0.00 67 1012.7
20260902073749 77 158 7.0 11.0 0.00 0.00 0.00 67 1012.7
20260902073231 77 194 7.0 11.0 0.00 0.00 0.00 67 1012.7
20260902073048 77 194 6.0 11.0 0.00 0.00 0.00 67 1009.8
20260902072743 77 150 7.0 12.0 0.00 0.00 0.00 67 1012.6
20260902072236 77 215 8.0 12.0 0.00 0.00 0.00 67 1012.6
20260902071743 77 190 8.0 16.0 0.00 0.00 0.00 67 1012.6
20260902071516 77 167 6.0 16.0 0.00 0.00 0.00 67 1009.8
20260902071228 77 200 7.0 16.0 0.00 0.00 0.00 67 1012.6
20260902070733 77 181 9.0 13.0 0.00 0.00 0.00 67 1012.6
20260902070222 78 177 7.0 12.0 0.00 0.00 0.00 67 1012.7
20260902070057 77 178 7.0 12.0 0.00 0.00 0.00 67 1010.0
20260902065734 78 202 6.0 10.0 0.00 0.00 0.00 67 1012.7
20260902065244 78 198 7.0 10.0 0.00 0.00 0.00 67 1012.7
20260902064726 78 194 6.0 14.0 0.00 0.00 0.00 67 1012.8
20260902064608 77 207 6.0 14.0 0.00 0.00 0.00 67 1009.9
20260902064240 78 199 8.0 14.0 0.00 0.00 0.00 67 1012.7
20260902063749 78 181 9.0 14.0 0.00 0.00 0.00 66 1012.6
20260902063227 78 189 9.0 11.0 0.00 0.00 0.00 66 1012.6
20260902063051 78 184 8.0 12.0 0.00 0.00 0.00 66 1009.8
20260902062739 78 196 8.0 14.0 0.00 0.00 0.00 66 1012.6
20260902062222 78 205 9.0 14.0 0.00 0.00 0.00 66 1012.5
20260902061733 78 173 8.0 13.0 0.00 0.00 0.00 66 1012.5
20260902061502 78 203 7.0 13.0 0.00 0.00 0.00 66 1009.7
20260902061247 79 164 8.0 13.0 0.00 0.00 0.00 66 1012.5
20260902060730 79 169 8.0 14.0 0.00 0.00 0.00 66 1012.5
20260902060241 79 168 7.0 11.0 0.00 0.00 0.00 66 1012.3
20260902060110 78 159 6.0 10.0 0.00 0.00 0.00 66 1009.6
20260902060000 78 184 7.0 10.0 0.00 0.00 0.00 66 1009.6
20260902055754 79 159 8.0 12.0 0.00 0.00 0.00 66 1012.3
20260902055302 79 182 8.0 11.0 0.00 0.00 0.00 65 1012.3
20260902054722 79 175 8.0 11.0 0.00 0.00 0.00 66 1012.3
20260902054521 79 176 8.0 13.0 0.00 0.00 0.00 65 1009.6
20260902054235 79 184 8.0 13.0 0.00 0.00 0.00 65 1012.3
20260902053744 79 162 9.0 12.0 0.00 0.00 0.00 65 1012.4
20260902053224 80 182 8.0 12.0 0.00 0.00 0.00 65 1012.4
20260902053013 79 163 7.0 12.0 0.00 0.00 0.00 65 1009.6
20260902052754 80 191 8.0 10.0 0.00 0.00 0.00 65 1012.5
20260902052239 80 161 8.0 11.0 0.00 0.00 0.00 65 1012.5
20260902051722 80 150 7.0 10.0 0.00 0.00 0.00 65 1012.6
20260902051552 79 177 7.0 10.0 0.00 0.00 0.00 65 1009.8
20260902051234 80 183 7.0 10.0 0.00 0.00 0.00 65 1012.6
20260902050743 80 174 8.0 10.0 0.00 0.00 0.00 65 1012.6
20260902050226 80 164 7.0 11.0 0.00 0.00 0.00 65 1012.6
20260902050045 80 172 6.0 11.0 0.00 0.00 0.00 65 1009.8
20260902045738 80 166 7.0 11.0 0.00 0.00 0.00 65 1012.5
20260902045248 81 170 8.0 11.0 0.00 0.00 0.00 65 1012.5
20260902044738 81 182 7.0 11.0 0.00 0.00 0.00 65 1012.6
20260902044531 80 165 7.0 11.0 0.00 0.00 0.00 65 1009.8
20260902044246 81 183 8.0 11.0 0.00 0.00 0.00 65 1012.6
20260902043725 81 157 7.0 11.0 0.00 0.00 0.00 65 1012.7
20260902043240 81 184 8.0 12.0 0.00 0.00 0.00 65 1012.6
20260902043034 81 161 7.0 11.0 0.00 0.00 0.00 65 1009.8
20260902042722 81 146 7.0 11.0 0.00 0.00 0.00 65 1012.6
20260902042235 81 181 8.0 10.0 0.00 0.00 0.00 65 1012.6
20260902041746 82 163 7.0 10.0 0.00 0.00 0.00 65 1012.6
20260902041530 81 173 6.0 11.0 0.00 0.00 0.00 65 1009.7
20260902041230 82 185 6.0 11.0 0.00 0.00 0.00 65 1012.6
20260902040736 82 172 8.0 11.0 0.00 0.00 0.00 65 1012.7
20260902040248 82 172 7.0 9.0 0.00 0.00 0.00 65 1012.6
20260902040048 81 146 7.0 10.0 0.00 0.00 0.00 65 1009.9
20260902035738 82 173 6.0 11.0 0.00 0.00 0.00 65 1012.7
20260902035227 82 165 7.0 11.0 0.00 0.00 0.00 65 1012.7
20260902034739 82 167 7.0 9.0 0.00 0.00 0.00 65 1012.7
20260902034542 82 166 7.0 10.0 0.00 0.00 0.00 65 1009.8
20260902034223 82 173 6.0 9.0 0.00 0.00 0.00 65 1012.6
20260902033753 82 182 7.0 9.0 0.00 0.00 0.00 65 1012.6
20260902033240 83 163 7.0 11.0 0.00 0.00 0.00 65 1012.6
20260902033033 82 186 7.0 11.0 0.00 0.00 0.00 65 1009.8
20260902032722 83 172 7.0 11.0 0.00 0.00 0.00 65 1012.5
20260902032254 83 163 7.0 10.0 0.00 0.00 0.00 65 1012.5
20260902031742 83 161 8.0 10.0 0.00 0.00 0.00 65 1012.5
20260902031557 83 160 6.0 10.0 0.00 0.00 0.00 65 1009.6
20260902031226 83 171 7.0 10.0 0.00 0.00 0.00 65 1012.5
20260902030756 83 169 6.0 10.0 0.00 0.00 0.00 65 1012.5
20260902030242 83 155 7.0 11.0 0.00 0.00 0.00 65 1012.5
20260902030034 83 162 7.0 11.0 0.00 0.00 0.00 65 1009.6
20260902025725 83 160 7.0 11.0 0.00 0.00 0.00 65 1012.5
20260902025237 84 174 7.0 10.0 0.00 0.00 0.00 65 1012.3
20260902024722 84 140 8.0 10.0 0.00 0.00 0.00 65 1012.3
20260902024545 83 166 7.0 11.0 0.00 0.00 0.00 65 1009.4
20260902024233 84 172 7.0 11.0 0.00 0.00 0.00 65 1012.3
20260902023743 84 144 7.0 10.0 0.00 0.00 0.00 64 1012.2
20260902023225 84 175 7.0 10.0 0.00 0.00 0.00 64 1012.2
20260902023048 84 163 6.0 9.0 0.00 0.00 0.00 64 1009.2
20260902022736 84 169 6.0 10.0 0.00 0.00 0.00 64 1012.1
20260902022243 85 167 6.0 11.0 0.00 0.00 0.00 64 1012.0
20260902021725 85 176 7.0 11.0 0.00 0.00 0.00 63 1011.9
20260902021613 84 171 6.0 10.0 0.00 0.00 0.00 63 1008.9
20260902021237 85 163 7.0 10.0 0.00 0.00 0.00 63 1011.8
20260902020747 85 165 6.0 9.0 0.00 0.00 0.00 62 1011.8
20260902020230 86 164 6.0 9.0 0.00 0.00 0.00 62 1011.8
20260902020056 85 167 5.0 9.0 0.00 0.00 0.00 62 1008.8
20260902015741 86 146 6.0 8.0 0.00 0.00 0.00 61 1011.7
20260902015222 86 173 6.0 8.0 0.00 0.00 0.00 61 1011.6
20260902014733 87 152 5.0 9.0 0.00 0.00 0.00 60 1011.5
20260902014558 86 156 4.0 9.0 0.00 0.00 0.00 60 1008.6
20260902014242 87 171 6.0 9.0 0.00 0.00 0.00 60 1011.5
20260902013723 87 140 5.0 10.0 0.00 0.00 0.00 59 1011.3
20260902013236 88 180 7.0 11.0 0.00 0.00 0.00 59 1011.3
20260902013104 87 165 7.0 10.0 0.00 0.00 0.00 59 1008.3
20260902012746 88 173 6.0 10.0 0.00 0.00 0.00 59 1011.3
20260902012229 88 165 6.0 10.0 0.00 0.00 0.00 58 1011.2
20260902011739 89 163 6.0 9.0 0.00 0.00 0.00 58 1011.3
20260902011600 88 161 5.0 9.0 0.00 0.00 0.00 58 1008.2
20260902011251 89 170 6.0 9.0 0.00 0.00 0.00 58 1011.2
20260902010743 90 161 6.0 8.0 0.00 0.00 0.00 57 1011.2
20260902010222 90 165 6.0 9.0 0.00 0.00 0.00 56 1011.2
20260902010036 90 163 5.0 9.0 0.00 0.00 0.00 56 1008.2
20260902005734 91 149 6.0 9.0 0.00 0.00 0.00 56 1011.2
20260902005244 91 178 7.0 9.0 0.00 0.00 0.00 55 1011.2
20260902004729 91 158 6.0 10.0 0.00 0.00 0.00 55 1011.2
20260902004538 91 180 6.0 9.0 0.00 0.00 0.00 54 1008.3
20260902004243 92 156 7.0 10.0 0.00 0.00 0.00 54 1011.3
20260902003725 93 162 7.0 10.0 0.00 0.00 0.00 53 1011.2
20260902003237 93 163 7.0 9.0 0.00 0.00 0.00 52 1011.3
20260902003044 93 180 6.0 9.0 0.00 0.00 0.00 52 1008.3
20260902002749 94 143 7.0 9.0 0.00 0.00 0.00 52 1011.2
20260902002235 94 156 6.0 9.0 0.00 0.00 0.00 51 1011.2
20260902001746 95 166 5.0 7.0 0.00 0.00 0.00 51 1011.2
20260902001504 95 167 5.0 9.0 0.00 0.00 0.00 51 1008.3
20260902001237 95 157 6.0 9.0 0.00 0.00 0.00 51 1011.3
20260902000747 96 174 6.0 11.0 0.00 0.00 0.00 50 1011.3
20260902000241 96 146 6.0 11.0 0.00 0.00 0.00 50 1011.5
20260902000044 95 178 7.0 11.0 0.00 0.00 0.00 50 1008.5
20260901235722 96 163 6.0 9.0 0.00 0.00 0.00 49 1011.5
20260901235236 97 163 7.0 10.0 0.00 0.00 0.00 49 1011.5
20260901234742 97 166 8.0 10.0 0.00 0.00 0.00 49 1011.6
20260901234554 97 191 6.0 12.0 0.00 0.00 0.00 49 1008.6
20260901234228 97 192 6.0 9.0 0.00 0.00 0.00 49 1011.6
20260901233738 97 182 6.0 8.0 0.00 0.00 0.00 49 1011.6
20260901233250 97 188 5.0 8.0 0.00 0.00 0.00 48 1011.7
20260901233053 97 178 4.0 8.0 0.00 0.00 0.00 49 1008.7
20260901232735 98 190 5.0 9.0 0.00 0.00 0.00 48 1011.6
20260901232248 98 198 6.0 11.0 0.00 0.00 0.00 47 1011.7
20260901231739 98 183 5.0 11.0 0.00 0.00 0.00 47 1011.7
20260901231530 97 165 6.0 11.0 0.00 0.00 0.00 48 1008.8
20260901231224 98 155 5.0 11.0 0.00 0.00 0.00 48 1011.7
20260901230749 98 186 7.0 10.0 0.00 0.00 0.00 47 1011.7
20260901230232 98 184 6.0 10.0 0.00 0.00 0.00 47 1011.7
20260901230032 98 188 7.0 12.0 0.00 0.00 0.00 47 1008.8
20260901225744 98 200 6.0 11.0 0.00 0.00 0.00 47 1011.8
20260901225228 98 199 6.0 10.0 0.00 0.00 0.00 48 1011.8
20260901224758 98 211 7.0 10.0 0.00 0.00 0.00 48 1011.9
20260901224528 97 186 6.0 10.0 0.00 0.00 0.00 48 1009.0
20260901224250 98 197 6.0 13.0 0.00 0.00 0.00 49 1011.9
20260901223732 98 201 7.0 13.0 0.00 0.00 0.00 47 1011.9
20260901223240 98 219 7.0 12.0 0.00 0.00 0.00 48 1011.8
20260901223011 97 179 6.0 12.0 0.00 0.00 0.00 47 1008.9
20260901222723 97 183 8.0 12.0 0.00 0.00 0.00 47 1011.8
20260901222235 97 180 8.0 15.0 0.00 0.00 0.00 47 1011.8
20260901221746 98 179 10.0 15.0 0.00 0.00 0.00 47 1011.8
20260901221513 97 211 8.0 17.0 0.00 0.00 0.00 47 1008.9
20260901221229 98 205 7.0 17.0 0.00 0.00 0.00 47 1011.9
20260901220740 98 166 8.0 14.0 0.00 0.00 0.00 47 1012.0
20260901220223 98 201 8.0 19.0 0.00 0.00 0.00 46 1012.0
20260901220009 98 191 9.0 19.0 0.00 0.00 0.00 45 1009.0
20260901215735 98 207 9.0 19.0 0.00 0.00 0.00 46 1012.1
20260901215306 98 200 9.0 19.0 0.00 0.00 0.00 45 1012.1
20260901214724 98 157 9.0 17.0 0.00 0.00 0.00 46 1012.1
20260901214554 98 178 9.0 17.0 0.00 0.00 0.00 46 1009.2
20260901214238 98 223 9.0 17.0 0.00 0.00 0.00 48 1012.1
20260901213749 98 188 10.0 17.0 0.00 0.00 0.00 47 1012.1
20260901213231 98 213 11.0 17.0 0.00 0.00 0.00 46 1012.2
20260901213055 97 196 10.0 17.0 0.00 0.00 0.00 48 1009.3
20260901212742 98 180 11.0 18.0 0.00 0.00 0.00 47 1012.1
20260901212224 98 191 13.0 20.0 0.00 0.00 0.00 46 1012.2
20260901211731 98 183 13.0 20.0 0.00 0.00 0.00 47 1012.2
20260901211555 98 211 8.0 15.0 0.00 0.00 0.00 47 1009.3
20260901211303 98 190 10.0 17.0 0.00 0.00 0.00 47 1012.3
20260901210723 99 221 11.0 17.0 0.00 0.00 0.00 47 1012.4
20260901210234 99 217 7.0 12.0 0.00 0.00 0.00 49 1012.4
20260901210033 98 180 8.0 12.0 0.00 0.00 0.00 49 1009.6
20260901205745 99 148 8.0 14.0 0.00 0.00 0.00 49 1012.4
20260901205235 99 176 8.0 17.0 0.00 0.00 0.00 49 1012.4
20260901204804 99 196 10.0 17.0 0.00 0.00 0.00 48 1012.4
20260901204541 99 211 10.0 15.0 0.00 0.00 0.00 46 1009.6
20260901204227 100 196 10.0 16.0 0.00 0.00 0.00 48 1012.6
20260901203737 100 169 9.0 16.0 0.00 0.00 0.00 47 1012.6
20260901203221 99 181 8.0 13.0 0.00 0.00 0.00 49 1012.7
20260901203040 98 178 7.0 13.0 0.00 0.00 0.00 50 1009.9
20260901202732 99 170 8.0 16.0 0.00 0.00 0.00 49 1012.9
20260901202246 99 165 9.0 16.0 0.00 0.00 0.00 48 1012.9
20260901201729 99 189 8.0 12.0 0.00 0.00 0.00 49 1012.9
20260901201533 98 188 7.0 18.0 0.00 0.00 0.00 48 1010.1
20260901201303 99 200 9.0 18.0 0.00 0.00 0.00 48 1013.0
20260901200749 99 197 11.0 18.0 0.00 0.00 0.00 48 1012.9
20260901200240 100 201 7.0 14.0 0.00 0.00 0.00 48 1013.1
20260901200106 99 198 9.0 16.0 0.00 0.00 0.00 47 1010.3
20260901195723 100 174 10.0 16.0 0.00 0.00 0.00 47 1013.1
20260901195253 99 176 11.0 16.0 0.00 0.00 0.00 48 1013.2
20260901194743 100 213 9.0 15.0 0.00 0.00 0.00 46 1013.2
20260901194528 99 182 10.0 15.0 0.00 0.00 0.00 47 1010.4
20260901194228 99 170 8.0 14.0 0.00 0.00 0.00 47 1013.2
20260901193737 99 171 6.0 12.0 0.00 0.00 0.00 48 1013.3
20260901193246 99 174 10.0 15.0 0.00 0.00 0.00 47 1013.3
20260901193029 99 171 8.0 15.0 0.00 0.00 0.00 48 1010.5
20260901192729 99 144 9.0 15.0 0.00 0.00 0.00 47 1013.3
20260901192241 99 155 7.0 13.0 0.00 0.00 0.00 49 1013.5
20260901191726 99 169 9.0 13.0 0.00 0.00 0.00 48 1013.5
20260901191539 98 178 6.0 13.0 0.00 0.00 0.00 48 1010.8
20260901191239 98 192 7.0 13.0 0.00 0.00 0.00 47 1013.7
20260901190751 98 148 6.0 15.0 0.00 0.00 0.00 48 1013.6
20260901190221 98 175 8.0 15.0 0.00 0.00 0.00 48 1013.6
20260901190059 97 166 7.0 15.0 0.00 0.00 0.00 48 1010.8
20260901185728 98 178 9.0 15.0 0.00 0.00 0.00 46 1013.5
20260901185240 98 188 11.0 14.0 0.00 0.00 0.00 46 1013.4
20260901184724 98 132 10.0 14.0 0.00 0.00 0.00 46 1013.4
20260901184503 97 151 9.0 14.0 0.00 0.00 0.00 48 1010.8
20260901184236 98 169 8.0 16.0 0.00 0.00 0.00 48 1013.6
20260901183748 98 202 9.0 15.0 0.00 0.00 0.00 48 1013.6
20260901183231 98 174 10.0 14.0 0.00 0.00 0.00 47 1013.7
20260901183005 97 186 8.0 14.0 0.00 0.00 0.00 46 1010.9
20260901182743 98 183 9.0 15.0 0.00 0.00 0.00 47 1013.7
20260901182228 98 161 6.0 15.0 0.00 0.00 0.00 47 1013.8
20260901181736 97 160 6.0 11.0 0.00 0.00 0.00 47 1013.9
20260901181502 97 202 7.0 11.0 0.00 0.00 0.00 46 1011.1
20260901181249 97 163 8.0 11.0 0.00 0.00 0.00 48 1014.0
20260901180740 98 194 5.0 11.0 0.00 0.00 0.00 47 1014.0
20260901180223 97 161 5.0 12.0 0.00 0.00 0.00 47 1014.1
20260901180041 97 204 7.0 12.0 0.00 0.00 0.00 48 1011.3
20260901175734 97 198 6.0 12.0 0.00 0.00 0.00 48 1014.2
20260901175306 97 163 5.0 9.0 0.00 0.00 0.00 50 1014.2
20260901174727 96 156 8.0 10.0 0.00 0.00 0.00 47 1014.2
20260901174535 96 207 6.0 9.0 0.00 0.00 0.00 50 1011.4
20260901174237 96 159 5.0 11.0 0.00 0.00 0.00 49 1014.2
20260901173806 96 161 6.0 10.0 0.00 0.00 0.00 51 1014.2
20260901173229 95 207 4.0 9.0 0.00 0.00 0.00 52 1014.3
20260901173101 95 200 4.0 10.0 0.00 0.00 0.00 52 1011.5
20260901172739 95 227 4.0 8.0 0.00 0.00 0.00 52 1014.3
20260901172223 94 171 5.0 14.0 0.00 0.00 0.00 52 1014.4
20260901171735 94 185 7.0 14.0 0.00 0.00 0.00 50 1014.4
20260901171605 94 198 7.0 14.0 0.00 0.00 0.00 51 1011.7
20260901171248 94 190 5.0 11.0 0.00 0.00 0.00 52 1014.4